Regional Weather Roundup
Issued by NWS

Home | Current Version | Previous Version | Graphics & Text | Print | Product List | Glossary On
Versions: 1 2 3 4 5 6 7 8 9 10 11 12 13 14 15 16 17 18 19 20 21 22 23 24 25 26 27 28 29 30 31 32 33 34 35 36 37 38 39 40 41 42 43 44 45 46 47 48 49 50
000
ASUS43 KMPX 291001
RWRMN
WEATHER ROUNDUP FOR MINNESOTA
NATIONAL WEATHER SERVICE TWIN CITIES/CHANHASSEN MN
400 AM CST THU JAN 29 2015


NOTE: "FAIR" INDICATES FEW OR NO CLOUDS BELOW 12,000 FEET WITH NO
SIGNIFICANT WEATHER AND/OR OBSTRUCTIONS TO VISIBILITY. N/A MEANS
CURRENT SKY AND/OR WEATHER CONDITIONS ARE NOT AVAILABLE.

MNZ060>063-068>070-291100-
   Twin Cities Metro

CITY           SKY/WX    TMP DP  RH WIND       PRES   REMARKS
TWIN CITIES    CLOUDY    33  30  88 NW14      29.94R WCI  23
ST PAUL        CLOUDY    33  30  88 NW14      29.94R WCI  23
CRYSTAL        CLOUDY    34  31  88 NW14      29.93R WCI  25
BLAINE         CLOUDY    36  34  93 NW9G16    29.93R
LAKEVILLE      CLOUDY    30  30 100 NW13      29.93R FOG     WCI  20
EDEN PRAIRIE   CLOUDY    34  30  85 NW14G21   29.93R WCI  25
SOUTH ST PAUL  CLOUDY    34  32  92 NW14G20   29.93R WCI  24
LAKE ELMO      CLOUDY    32  32 100 NW9G17    29.92R WCI  24
$$
MNZ001>005-007-008-013>017-022>024-027-028-291100-
   Northwest Minnesota

CITY           SKY/WX    TMP DP  RH WIND       PRES   REMARKS
BEMIDJI        CLOUDY    22  20  93 NW20G26   30.06R WCI   7
HALLOCK        CLOUDY    14   9  79 N25G36    30.24R WCI  -5
ROSEAU         CLOUDY    18  12  79 NW17      30.16R WCI   2
WARROAD        CLOUDY    16  12  86 NW22G29   30.14R WCI  -2
THIEF RVR FALL CLOUDY    16  12  86 NW24      30.18R WCI  -3
CROOKSTON      CLOUDY    18  16  93 N31       30.24R WCI  -2
FOSSTON        CLOUDY    16  14  93 NW20G25   30.16R WCI  -1
DETROIT LAKES  CLOUDY    21  19  93 NW20G25   30.14R WCI   6
MOORHEAD       CLOUDY    25  23  93 N21       30.22R WCI  10
PARK RAPIDS    CLOUDY    24  20  84 NW18G32   30.05R WCI  10
MAHNOMEN       CLOUDY    19  16  91 NW17G26   30.14R WCI   3
$$
MNZ006-009>011-018-025>026-291100-
   North Central Minnesota

CITY           SKY/WX    TMP DP  RH WIND       PRES   REMARKS
BAUDETTE       CLOUDY    19  15  84 NW21G30   30.07R WCI   3
FLAG ISLAND    CLOUDY    14  10  85 NW22G28   30.10R WCI  -4
INTL FALLS     CLOUDY    22  18  85 NW18G28   30.00R WCI   7
WASKISH        CLOUDY    21  21 100 W13G18    30.07R WCI   9
BIG FORK       CLOUDY    27  23  86 N8G18     29.99R WCI  18
LONGVILLE      MIX PCPN  27  27 100 NW8G17    30.00R WCI  18
GRAND RAPIDS   CLOUDY    27  23  86 NW17G32   29.95R WCI  14
CRANE LAKE     CLOUDY    25  21  86 NW9G21    29.96R WCI  15
ORR            CLOUDY    27  21  80 NW17G28   29.92R WCI  14
COOK           CLOUDY    27  23  86 NW13G23   29.93R WCI  16
WALKER         CLOUDY    24  23  93 NW10G16   30.02R WCI  14
$$
MNZ012-019>021-037-291100-
   Northeast Minnesota

CITY           SKY/WX    TMP DP  RH WIND       PRES   REMARKS
DULUTH         FLURRIES  29  23  78 N26G35    29.85R WCI  14
ELY            CLOUDY    27  23  86 NW14G25   29.87R WCI  15
HIBBING        CLOUDY    28  22  78 NW16      29.92R WCI  16
EVELETH        CLOUDY    28  25  86 N14G21    29.91R WCI  17
DULUTH HARBOR  CLOUDY    34  27  75 NW16G24   29.92R WCI  23
TWO HARBORS    CLOUDY    32  25  74 NW12G18   29.84R WCI  23
SILVER BAY       N/A    N/A N/A N/A MISG        N/A
GRAND MARAIS     N/A     31  23  72 CALM      29.82R
G MARAIS ARPRT CLOUDY    25  19  80 NW13G24   29.75R WCI  13
$$
MNZ029>031-032-039>041-046>048-054>057-064-291100-
   West Central Minnesota

CITY           SKY/WX    TMP DP  RH WIND       PRES   REMARKS
FERGUS FALLS   CLOUDY    25  21  86 N25G38    30.18R WCI   9
WHEATON        CLOUDY    27  23  86 NW20G30   30.20R WCI  13
MORRIS         CLOUDY    28  25  86 NW35G40   30.11R WCI  12
ALEXANDRIA     CLOUDY    26  22  84 NW22G38   30.07R WCI  12
ELBOW LAKE     CLOUDY    25  23  93 NW22G31   30.13R WCI  10
WADENA         CLOUDY    23  21  93 NW14G22   30.07R WCI  11
GLENWOOD       CLOUDY    27  25  93 NW23G30   30.06R WCI  12
APPLETON       CLOUDY    30  27  86 N25G33    30.14R WCI  16
BENSON         CLOUDY    28  25  86 N24G33    30.10R WCI  14
ORTONVILLE     CLOUDY    28  23  80 NW20G28   30.15R WCI  15
MADISON        CLOUDY    34  28  80 NW26G35   30.15R WCI  21
WILLMAR        CLOUDY    30  27  86 NW25G35   30.07R WCI  16
$$
MNZ033>034-036-042>043-049>051-058-059-291100-
   Central Minnesota

CITY           SKY/WX    TMP DP  RH WIND       PRES   REMARKS
ST CLOUD       CLOUDY    31  28  89 NW18G26   29.97R WCI  19
SAUK CENTRE    CLOUDY    26  24  89 NW24G33   30.04R WCI  11
PAYNESVILLE    CLOUDY    26  24  92 W23G32    30.04R WCI  11
AITKIN         CLOUDY    34  27  75 NW13G20   29.95R WCI  25
PINE RIVER     CLOUDY    27  25  93 NW15G26   30.04R WCI  15
BRAINERD       CLOUDY    29  26  89 NW16      29.99R WCI  17
STAPLES        CLOUDY    25  23  93 NW20G25   30.03R WCI  11
LONG PRAIRIE   CLOUDY    27  23  86 NW21G30   30.03R WCI  13
LITTLE FALLS   CLOUDY    30  27  86 NW15G22   30.01R WCI  19
LITCHFIELD     CLOUDY    30  28  93 NW22G31   30.02R WCI  17
BUFFALO        CLOUDY    33  30  89 NW15G26   29.98R WCI  22
MAPLE LAKE     CLOUDY    32  31  95 NW20G28   29.98R WCI  21
$$
MNZ037-044-045-052-053-291100-
   East Central Minnesota

CITY           SKY/WX    TMP DP  RH WIND       PRES   REMARKS
PRINCETON      LGT SNOW  34  30  86 NW15G23   29.95R WCI  24
MORA           CLOUDY    32  28  86 NW17G24   29.94R WCI  21
CAMBRIDGE      FLURRIES  36  27  69 NW17G28   29.92R
RUSH CITY      CLOUDY    32  30  90 NW8       29.92R WCI  25
MOOSE LAKE     CLOUDY    32  27  80 NW13G21   29.91R WCI  22
HINCKLEY       CLOUDY    32  30  93 N16G22    29.91R WCI  21
CLOQUET        CLOUDY    30  25  80 NW20      29.89R WCI  18
MCGREGOR       CLOUDY    30  28  93 NW16G31   29.95R WCI  19
$$
MNZ071>073-080-081-089-090-097-098-291100-
   Southwest Minnesota

CITY           SKY/WX    TMP DP  RH WIND       PRES   REMARKS
MONTEVIDEO     CLOUDY    30  27  86 N26G39    30.11R WCI  16
GRANITE FALLS  CLOUDY    31  26  84 NW26G37   30.12R WCI  16
CANBY          CLOUDY    29  25  83 NW26G38   30.16R WCI  15
MARSHALL       CLOUDY    30  25  80 N32G38    30.11R WCI  15
REDWOOD FALLS  CLOUDY    32  27  81 NW15G28   30.06R WCI  22
OLIVIA         CLOUDY    30  28  93 NW23G35   30.05R WCI  17
PIPESTONE      CLOUDY    30  27  86 N23G33    30.11R WCI  17
WINDOM         CLOUDY    30  28  93 NW29G40   30.04R WCI  15
WORTHINGTON    CLOUDY   N/A N/A N/A NW26G38   30.07R
JACKSON        CLOUDY    32  30  93 NW28G44   30.02R WCI  18
TRACY          CLOUDY    32  29  90 NW25G36   30.09R WCI  18
SLAYTON        CLOUDY    30  27  89 NW29G40   30.08R WCI  15
$$
MNZ065>067-074>077-082>085-091>093-291100-
   South Central Minnesota

CITY           SKY/WX    TMP DP  RH WIND       PRES   REMARKS
MANKATO        CLOUDY    34  28  80 NW18G29   29.97R WCI  23
NEW ULM        CLOUDY    30  28  93 NW23G36   30.01R WCI  17
ST JAMES       CLOUDY    34  30  86 NW28G37   30.03R WCI  20
FAIRMONT       CLOUDY    34  27  75 NW23G32   29.99R WCI  22
GLENCOE        CLOUDY    33  32  94 NW21G29   29.98R WCI  21
FARIBAULT      CLOUDY    34  30  86 NW13G20   29.94R WCI  25
OWATONNA       CLOUDY    34  30  86 NW17G23   29.93R FOG     WCI  23
WASECA         CLOUDY    32  32 100 NW16      29.95R FOG     WCI  21
ALBERT LEA     CLOUDY    34  34 100 NW14G25   29.92R FOG     WCI  24
$$
MNZ078>079-086>088-094>096-291100-
   Southeast Minnesota

CITY           SKY/WX    TMP DP  RH WIND       PRES   REMARKS
ROCHESTER      FRZ RAIN  30  29  96 NW20      29.88R FOG     WCI  17
RED WING       CLOUDY    32  30  93 NW7       29.91R FOG     WCI  26
DODGE CENTER   CLOUDY    32  30  93 NW16G23   29.89R FOG     WCI  21
WINONA         CLOUDY    32  28  86 NW10      29.89R WCI  24
AUSTIN         CLOUDY    32  30  93 NW18G24   29.90R FOG     WCI  20
PRESTON        CLOUDY    30  28  91 N15G28    29.87R FOG     WCI  19
$$
ABBREVIATIONS USED IN REMARKS
   TC - TEMPERATURES IN CELSIUS
  WCI - WIND CHILL INDEX
   HX - HEAT INDEX
  VSB - VISIBILITY
$$



USA.gov is the U.S. government's official web portal to all federal, state and local government web resources and services.